FW9533 Weather Reports


Display with metric or nautical units.
time (UTC)temp
F
wind
direction
speed
MPH
gust
MPH
rain 1hr
in
rain 24hr
in
rain mn
in
humidity
%
barometer
mb
20260509123635 55 224 9.0 11.0 0.00 0.00 0.00 73 997.5
20260509123131 55 232 8.0 14.0 0.00 0.00 0.00 74 997.8
20260509122627 54 224 11.0 13.0 0.00 0.00 0.00 75 997.5
20260509122124 54 246 10.0 17.0 0.00 0.00 0.00 75 997.7
20260509121621 54 218 10.0 11.0 0.00 0.00 0.00 76 997.7
20260509121119 53 217 11.0 15.0 0.00 0.00 0.00 77 997.7
20260509120616 53 228 9.0 20.0 0.00 0.00 0.00 76 997.5
20260509120115 53 223 11.0 15.0 0.00 0.00 0.00 76 997.3
20260509115612 53 222 9.0 15.0 0.00 0.00 0.00 75 997.7
20260509115109 53 232 9.0 13.0 0.00 0.00 0.00 75 997.7
20260509114607 53 225 8.0 11.0 0.00 0.00 0.00 75 997.8
20260509114106 53 229 7.0 14.0 0.00 0.00 0.00 75 997.6
20260509113603 54 215 5.0 15.0 0.00 0.00 0.00 74 997.7
20260509113101 54 224 9.0 13.0 0.00 0.00 0.00 73 997.5
20260509112557 54 229 5.0 15.0 0.00 0.00 0.00 73 997.7
20260509112054 54 213 10.0 15.0 0.00 0.00 0.00 72 997.8
20260509111551 54 230 7.0 11.0 0.00 0.00 0.00 71 997.9
20260509111048 54 218 7.0 18.0 0.00 0.00 0.00 70 998.2
20260509110545 54 204 11.0 14.0 0.00 0.00 0.00 69 997.7
20260509110042 55 233 11.0 15.0 0.00 0.00 0.00 69 997.7
20260509105541 55 201 11.0 14.0 0.00 0.00 0.00 68 997.6
20260509105038 55 218 8.0 16.0 0.00 0.00 0.00 68 997.6
20260509104535 55 169 6.0 15.0 0.00 0.00 0.00 68 997.5
20260509104031 55 239 5.0 10.0 0.00 0.00 0.00 69 997.7
20260509103529 55 224 12.0 15.0 0.00 0.00 0.00 68 998.2
20260509103027 55 218 12.0 20.0 0.00 0.00 0.00 67 998.2
20260509102524 55 215 11.0 13.0 0.00 0.00 0.00 67 998.3
20260509102021 55 223 7.0 11.0 0.00 0.00 0.00 66 998.0
20260509101517 54 242 7.0 11.0 0.00 0.00 0.00 65 998.0
20260509101014 54 219 4.0 10.0 0.00 0.00 0.00 65 998.0
20260509100512 53 213 6.0 8.0 0.00 0.00 0.00 65 998.0
20260509100009 53 223 4.0 6.0 0.00 0.00 0.00 66 998.0
20260509095505 53 218 1.0 2.0 0.00 0.00 0.00 66 998.2
20260509095003 53 202 2.0 3.0 0.00 0.00 0.00 65 998.3
20260509094459 53 227 2.0 2.0 0.00 0.00 0.00 65 998.6
20260509093956 52 206 3.0 3.0 0.00 0.00 0.00 64 998.7
20260509093454 51 115 3.0 7.0 0.00 0.00 0.00 64 998.5
20260509092951 51 68 1.0 3.0 0.00 0.00 0.00 65 998.7
20260509092449 53 103 0.0 1.0 0.00 0.00 0.00 61 999.0
20260509091948 54 63 0.0 0.0 0.00 0.00 0.00 60 998.9
20260509091444 54 217 2.0 3.0 0.00 0.00 0.00 59 999.0
20260509090941 55 224 3.0 3.0 0.00 0.00 0.00 58 998.9
20260509090439 55 222 3.0 6.0 0.00 0.00 0.00 57 999.1
20260509085936 55 157 2.0 6.0 0.00 0.00 0.00 57 999.1
20260509085433 54 192 3.0 5.0 0.00 0.00 0.00 57 999.2
20260509084929 54 209 4.0 8.0 0.00 0.00 0.00 56 999.2
20260509084426 54 214 6.0 9.0 0.00 0.00 0.00 55 999.4
20260509083924 54 224 4.0 7.0 0.00 0.00 0.00 54 999.5
20260509083421 54 220 4.0 8.0 0.00 0.00 0.00 53 999.6
20260509082917 54 227 7.0 13.0 0.00 0.00 0.00 51 999.5
20260509082415 54 232 9.0 11.0 0.00 0.00 0.00 50 999.9
20260509081911 55 233 8.0 14.0 0.00 0.00 0.00 49 999.8
20260509081409 54 221 8.0 10.0 0.00 0.00 0.00 48 1000.1
20260509080906 54 231 9.0 10.0 0.00 0.00 0.00 47 1000.0
20260509080404 55 221 6.0 9.0 0.00 0.00 0.00 46 1000.1
20260509075902 54 210 5.0 8.0 0.00 0.00 0.00 46 1000.0
20260509075358 55 231 7.0 9.0 0.00 0.00 0.00 45 999.9
20260509074856 55 206 9.0 11.0 0.00 0.00 0.00 43 1000.1
20260509074354 55 231 6.0 8.0 0.00 0.00 0.00 42 999.9
20260509073849 55 217 7.0 8.0 0.00 0.00 0.00 41 1000.1
20260509073346 55 226 7.0 7.0 0.00 0.00 0.00 40 1000.1
20260509072843 56 216 8.0 10.0 0.00 0.00 0.00 39 1000.2
20260509072339 56 227 6.0 9.0 0.00 0.00 0.00 40 1000.4
20260509071836 56 229 3.0 11.0 0.00 0.00 0.00 39 1000.6
20260509071333 56 217 7.0 10.0 0.00 0.00 0.00 39 1000.3
20260509070830 56 227 8.0 10.0 0.00 0.00 0.00 38 1000.7
20260509070327 56 185 7.0 11.0 0.00 0.00 0.00 38 1000.9
20260509065823 56 221 9.0 13.0 0.00 0.00 0.00 39 1000.7
20260509065319 56 202 5.0 13.0 0.00 0.00 0.00 39 1000.8
20260509064815 56 234 8.0 13.0 0.00 0.00 0.00 39 1000.9
20260509064313 55 190 3.0 10.0 0.00 0.00 0.00 44 1001.2
20260509063811 55 225 7.0 9.0 0.00 0.00 0.00 44 1001.3
20260509063307 55 220 6.0 8.0 0.00 0.00 0.00 45 1001.4
20260509062804 55 230 5.0 9.0 0.00 0.00 0.00 44 1001.6
20260509062301 55 234 7.0 8.0 0.00 0.00 0.00 43 1001.7
20260509061758 55 229 9.0 13.0 0.00 0.00 0.00 43 1001.8
20260509061256 55 205 9.0 14.0 0.00 0.00 0.00 43 1001.9
20260509060753 55 206 6.0 7.0 0.00 0.00 0.00 43 1001.8
20260509060250 55 207 3.0 6.0 0.00 0.00 0.00 42 1001.9
20260509055745 55 215 7.0 10.0 0.00 0.00 0.00 41 1002.1
20260509055241 55 225 7.0 11.0 0.00 0.00 0.00 40 1001.9
20260509054738 55 223 7.0 9.0 0.00 0.00 0.00 40 1001.9
20260509054235 55 209 4.0 9.0 0.00 0.00 0.00 39 1002.1
20260509053733 56 214 4.0 7.0 0.00 0.00 0.00 40 1002.0
20260509053230 56 219 5.0 9.0 0.00 0.00 0.00 39 1002.1
20260509052728 56 202 6.0 10.0 0.00 0.00 0.00 39 1002.1
20260509052225 56 182 6.0 11.0 0.00 0.00 0.00 40 1002.1
20260509051723 56 221 7.0 10.0 0.00 0.00 0.00 40 1002.2
20260509051220 56 225 5.0 9.0 0.00 0.00 0.00 42 1002.3
20260509050717 56 187 5.0 9.0 0.00 0.00 0.00 45 1002.4
20260509050213 55 210 6.0 7.0 0.00 0.00 0.00 48 1002.4
20260509045711 55 233 3.0 3.0 0.00 0.00 0.00 51 1002.5
20260509045208 55 217 4.0 5.0 0.00 0.00 0.00 49 1002.8
20260509044705 55 230 5.0 6.0 0.00 0.00 0.00 48 1002.7
20260509044203 56 220 5.0 7.0 0.00 0.00 0.00 47 1002.7
20260509043659 56 213 8.0 14.0 0.00 0.00 0.00 44 1002.9
20260509043154 56 212 9.0 13.0 0.00 0.00 0.00 42 1003.0
20260509042651 56 221 7.0 9.0 0.00 0.00 0.00 42 1003.1
20260509042147 55 220 5.0 6.0 0.00 0.00 0.00 45 1003.2
20260509041644 55 218 5.0 7.0 0.00 0.00 0.00 46 1003.6
20260509041141 54 227 5.0 6.0 0.00 0.00 0.00 46 1003.5
20260509040640 53 222 6.0 7.0 0.00 0.00 0.00 49 1003.5
20260509040136 51 219 3.0 3.0 0.00 0.00 0.00 62 1003.2
20260509035633 52 244 2.0 2.0 0.00 0.00 0.00 55 1003.6
20260509035130 52 239 1.0 2.0 0.00 0.00 0.00 55 1003.5
20260509034627 51 224 2.0 2.0 0.00 0.00 0.00 54 1003.7
20260509034125 51 232 2.0 3.0 0.00 0.00 0.00 59 1004.0
20260509033621 51 222 1.0 2.0 0.00 0.00 0.00 58 1004.1
20260509033118 51 222 1.0 2.0 0.00 0.00 0.00 57 1003.8
20260509032616 51 249 1.0 2.0 0.00 0.00 0.00 58 1004.0
20260509032112 51 257 1.0 1.0 0.00 0.00 0.00 55 1004.0
20260509031610 51 253 0.0 0.0 0.00 0.00 0.00 59 1003.9
20260509031108 51 250 2.0 2.0 0.00 0.00 0.00 55 1004.0
20260509030606 49 260 1.0 2.0 0.00 0.00 0.00 66 1004.2
20260509025558 46 340 0.0 0.0 0.00 0.00 0.00 78 1004.3
20260509025054 46 342 0.0 0.0 0.00 0.00 0.00 80 1004.1
20260509024550 47 342 0.0 0.0 0.00 0.00 0.00 81 1004.2
20260509024046 47 342 0.0 0.0 0.00 0.00 0.00 80 1004.1
20260509023544 47 342 0.0 0.0 0.00 0.00 0.00 79 1004.3
20260509023041 47 342 0.0 0.0 0.00 0.00 0.00 80 1004.4
20260509022537 47 342 0.0 0.0 0.00 0.00 0.00 74 1004.2
20260509022035 47 342 0.0 0.0 0.00 0.00 0.00 76 1004.3
20260509021532 47 343 0.0 0.0 0.00 0.00 0.00 72 1004.5
20260509021029 47 343 0.0 0.0 0.00 0.00 0.00 71 1004.3
20260509020527 47 343 0.0 0.0 0.00 0.00 0.00 73 1004.4
20260509020023 47 342 0.0 0.0 0.00 0.00 0.00 71 1004.5
20260509015523 48 342 1.0 2.0 0.00 0.00 0.00 70 1004.4
20260509015020 50 346 1.0 3.0 0.00 0.00 0.00 67 1004.4
20260509014516 53 340 2.0 2.0 0.00 0.00 0.00 57 1004.2
20260509014012 55 193 0.0 0.0 0.00 0.00 0.00 45 1004.3
20260509013510 55 211 1.0 1.0 0.00 0.00 0.00 43 1004.2
20260509013005 56 207 1.0 2.0 0.00 0.00 0.00 42 1004.3
20260509012502 56 202 2.0 2.0 0.00 0.00 0.00 41 1004.1
20260509011959 56 223 1.0 2.0 0.00 0.00 0.00 45 1004.2
20260509011456 57 218 2.0 2.0 0.00 0.00 0.00 42 1004.2
20260509010954 57 219 1.0 2.0 0.00 0.00 0.00 41 1004.1
20260509010451 57 227 2.0 3.0 0.00 0.00 0.00 42 1004.5
20260509005948 58 225 3.0 5.0 0.00 0.00 0.00 42 1004.3
20260509005446 58 217 4.0 7.0 0.00 0.00 0.00 40 1004.4
20260509004946 58 238 3.0 5.0 0.00 0.00 0.00 41 1004.4
20260509004443 58 245 3.0 6.0 0.00 0.00 0.00 40 1004.3
20260509003941 58 230 4.0 7.0 0.00 0.00 0.00 39 1004.4
20260509003438 58 218 3.0 6.0 0.00 0.00 0.00 39 1004.5
20260509002934 58 224 6.0 7.0 0.00 0.00 0.00 38 1004.2
20260509002433 58 218 5.0 7.0 0.00 0.00 0.00 39 1004.2
20260509001929 58 217 5.0 7.0 0.00 0.00 0.00 39 1004.3
20260509001426 59 237 5.0 8.0 0.00 0.00 0.00 37 1004.3
20260509000924 59 225 5.0 7.0 0.00 0.00 0.00 39 1004.3
20260509000422 59 225 8.0 9.0 0.00 0.00 0.00 36 1004.3
20260508235917 59 249 7.0 9.0 0.00 0.00 0.00 36 1004.4
20260508235415 59 231 5.0 8.0 0.00 0.00 0.00 37 1004.4
20260508234911 59 216 6.0 7.0 0.00 0.00 0.00 37 1004.5
20260508234409 60 221 10.0 13.0 0.00 0.00 0.00 35 1004.7
20260508233906 60 239 7.0 11.0 0.00 0.00 0.00 36 1004.6
20260508233405 60 205 7.0 10.0 0.00 0.00 0.00 35 1004.5
20260508232902 60 222 11.0 14.0 0.00 0.00 0.00 35 1004.7
20260508232358 60 231 8.0 11.0 0.00 0.00 0.00 35 1004.5
20260508231856 60 217 11.0 14.0 0.00 0.00 0.00 35 1004.7
20260508231352 60 229 9.0 11.0 0.00 0.00 0.00 35 1004.7
20260508230849 60 253 5.0 11.0 0.00 0.00 0.00 36 1004.7
20260508230346 60 258 6.0 8.0 0.00 0.00 0.00 35 1004.7
20260508225844 60 251 9.0 10.0 0.00 0.00 0.00 34 1004.6
20260508225340 60 253 9.0 11.0 0.00 0.00 0.00 35 1004.7
20260508224838 60 273 6.0 11.0 0.00 0.00 0.00 37 1004.8
20260508224335 61 239 7.0 16.0 0.00 0.00 0.00 34 1004.9
20260508223833 61 225 5.0 9.0 0.00 0.00 0.00 34 1004.7
20260508223330 61 209 7.0 17.0 0.00 0.00 0.00 35 1004.6
20260508222827 61 231 10.0 11.0 0.00 0.00 0.00 34 1004.8
20260508222324 61 233 11.0 15.0 0.00 0.00 0.00 33 1004.8
20260508221821 63 236 9.0 10.0 0.00 0.00 0.00 33 1004.7
20260508221316 63 239 10.0 15.0 0.00 0.00 0.00 32 1004.6
20260508220813 62 260 7.0 13.0 0.00 0.00 0.00 34 1004.7
20260508220309 61 222 5.0 11.0 0.00 0.00 0.00 34 1004.7
20260508215806 62 237 8.0 11.0 0.00 0.00 0.00 34 1005.0
20260508215306 62 245 7.0 11.0 0.00 0.00 0.00 31 1004.9
20260508214800 62 223 6.0 13.0 0.00 0.00 0.00 33 1005.0
20260508214257 61 245 7.0 11.0 0.00 0.00 0.00 33 1005.0
20260508213753 61 250 8.0 11.0 0.00 0.00 0.00 33 1004.9
20260508213250 62 282 9.0 16.0 0.00 0.00 0.00 33 1005.1
20260508212747 62 230 10.0 14.0 0.00 0.00 0.00 32 1005.1
20260508212243 62 224 7.0 14.0 0.00 0.00 0.00 32 1005.1
20260508211739 61 223 9.0 16.0 0.00 0.00 0.00 33 1005.1
20260508211235 61 217 12.0 20.0 0.00 0.00 0.00 33 1005.1
20260508210732 62 236 12.0 16.0 0.00 0.00 0.00 32 1005.2
20260508210229 61 276 7.0 14.0 0.00 0.00 0.00 32 1005.3
20260508205726 62 270 13.0 16.0 0.00 0.00 0.00 32 1005.4
20260508205222 61 242 6.0 14.0 0.00 0.00 0.00 32 1005.1
20260508204718 62 232 14.0 17.0 0.00 0.00 0.00 33 1005.2
20260508204215 62 264 9.0 14.0 0.00 0.00 0.00 33 1005.4
20260508203711 62 263 11.0 15.0 0.00 0.00 0.00 33 1005.5
20260508203208 61 291 5.0 10.0 0.00 0.00 0.00 33 1005.6
20260508202704 61 239 10.0 17.0 0.00 0.00 0.00 31 1005.6
20260508202201 62 240 10.0 10.0 0.00 0.00 0.00 32 1005.6
20260508201657 61 214 9.0 14.0 0.00 0.00 0.00 33 1005.8
20260508201154 61 216 9.0 13.0 0.00 0.00 0.00 33 1005.7
20260508200651 61 237 8.0 14.0 0.00 0.00 0.00 32 1005.7
20260508200147 61 295 11.0 16.0 0.00 0.00 0.00 36 1005.5
20260508195644 60 257 11.0 15.0 0.00 0.00 0.00 35 1006.1
20260508195141 61 268 12.0 22.0 0.00 0.00 0.00 35 1006.0
20260508194637 61 261 9.0 20.0 0.00 0.00 0.00 35 1006.1
20260508194134 61 247 9.0 16.0 0.00 0.00 0.00 36 1006.1
20260508193631 61 227 8.0 15.0 0.00 0.00 0.00 34 1006.4
20260508193128 61 206 8.0 14.0 0.00 0.00 0.00 34 1006.3
20260508192624 60 256 9.0 17.0 0.00 0.00 0.00 33 1006.3
20260508192122 60 225 12.0 16.0 0.00 0.00 0.00 35 1006.7
20260508191618 60 221 12.0 20.0 0.00 0.00 0.00 34 1006.6
20260508191115 60 288 11.0 16.0 0.00 0.00 0.00 36 1006.7
20260508190613 60 232 13.0 20.0 0.00 0.00 0.00 35 1006.7
20260508190109 60 279 11.0 15.0 0.00 0.00 0.00 37 1006.8
20260508185606 60 245 11.0 20.0 0.00 0.00 0.00 35 1006.7
20260508185103 60 246 9.0 16.0 0.00 0.00 0.00 37 1006.7
20260508184601 60 269 15.0 21.0 0.00 0.00 0.00 35 1007.0
20260508184057 60 236 14.0 24.0 0.00 0.00 0.00 34 1006.8
20260508183554 60 265 10.0 17.0 0.00 0.00 0.00 36 1007.0
20260508183050 59 243 13.0 18.0 0.00 0.00 0.00 35 1006.9
20260508182546 58 291 13.0 21.0 0.00 0.00 0.00 36 1006.9
20260508182044 59 257 15.0 23.0 0.00 0.00 0.00 35 1007.0
20260508181538 59 258 12.0 18.0 0.00 0.00 0.00 35 1007.0
20260508181036 58 240 10.0 16.0 0.00 0.00 0.00 37 1007.0
20260508180532 58 237 14.0 17.0 0.00 0.00 0.00 35 1007.0
20260508180029 59 227 13.0 21.0 0.00 0.00 0.00 34 1007.0
20260508175525 60 267 7.0 13.0 0.00 0.00 0.00 34 1007.4
20260508175023 58 220 7.0 14.0 0.00 0.00 0.00 35 1007.1
20260508174520 59 249 9.0 15.0 0.00 0.00 0.00 35 1007.2
20260508174017 58 259 12.0 21.0 0.00 0.00 0.00 35 1007.4
20260508173514 59 294 13.0 17.0 0.00 0.00 0.00 34 1007.6
20260508173010 58 264 12.0 17.0 0.00 0.00 0.00 35 1007.5
20260508172507 58 267 15.0 21.0 0.00 0.00 0.00 35 1007.7
20260508172004 58 220 13.0 16.0 0.00 0.00 0.00 34 1007.6
20260508171500 58 253 14.0 17.0 0.00 0.00 0.00 35 1008.0
20260508170956 59 223 9.0 17.0 0.00 0.00 0.00 34 1007.5
20260508170454 58 235 9.0 17.0 0.00 0.00 0.00 34 1008.0
20260508165951 59 252 8.0 15.0 0.00 0.00 0.00 34 1007.8
20260508165449 58 237 15.0 22.0 0.00 0.00 0.00 34 1007.7
20260508164944 58 205 14.0 22.0 0.00 0.00 0.00 35 1008.0
20260508164442 57 249 11.0 21.0 0.00 0.00 0.00 34 1008.0
20260508163938 58 227 19.0 22.0 0.00 0.00 0.00 35 1007.9
20260508163437 58 246 12.0 16.0 0.00 0.00 0.00 36 1008.0
20260508162932 58 236 7.0 14.0 0.00 0.00 0.00 36 1008.0
20260508162430 57 243 9.0 18.0 0.00 0.00 0.00 37 1008.0
20260508161926 57 254 11.0 17.0 0.00 0.00 0.00 35 1008.0
20260508161423 57 237 14.0 21.0 0.00 0.00 0.00 36 1008.3
20260508160921 56 264 11.0 22.0 0.00 0.00 0.00 36 1008.4
20260508160420 56 240 17.0 22.0 0.00 0.00 0.00 36 1008.5
20260508155915 56 251 16.0 18.0 0.00 0.00 0.00 36 1008.6
20260508155412 57 223 11.0 17.0 0.00 0.00 0.00 37 1008.6
20260508154909 56 256 9.0 20.0 0.00 0.00 0.00 39 1008.8
20260508154407 56 239 9.0 15.0 0.00 0.00 0.00 40 1008.4
20260508153903 55 245 11.0 16.0 0.00 0.00 0.00 42 1008.9
20260508153401 54 244 14.0 18.0 0.00 0.00 0.00 40 1008.6
20260508152856 54 228 8.0 11.0 0.00 0.00 0.00 43 1009.0
20260508152353 54 246 11.0 16.0 0.00 0.00 0.00 44 1008.8
20260508151849 54 248 12.0 17.0 0.00 0.00 0.00 44 1008.6
20260508151347 54 216 13.0 16.0 0.00 0.00 0.00 44 1008.9
20260508150843 53 245 7.0 15.0 0.00 0.00 0.00 47 1009.0
20260508150340 53 238 7.0 22.0 0.00 0.00 0.00 46 1008.8
20260508145836 53 232 11.0 11.0 0.00 0.00 0.00 47 1008.9
20260508145332 53 233 9.0 18.0 0.00 0.00 0.00 47 1009.1
20260508144829 53 240 8.0 13.0 0.00 0.00 0.00 49 1008.9
20260508144327 53 224 13.0 16.0 0.00 0.00 0.00 50 1008.9
20260508143824 53 224 11.0 15.0 0.00 0.00 0.00 52 1009.1
20260508143321 53 220 7.0 17.0 0.00 0.00 0.00 52 1008.9
20260508142818 53 230 9.0 11.0 0.00 0.00 0.00 54 1009.0
20260508142315 53 261 8.0 10.0 0.00 0.00 0.00 54 1008.9
20260508141811 53 230 7.0 8.0 0.00 0.00 0.00 57 1009.0
20260508141308 52 225 9.0 15.0 0.00 0.00 0.00 57 1009.2
20260508140806 52 246 8.0 13.0 0.00 0.00 0.00 57 1009.4
20260508140302 52 251 12.0 14.0 0.00 0.00 0.00 56 1009.1
20260508135758 51 265 5.0 7.0 0.00 0.00 0.00 59 1009.3
20260508135255 50 253 8.0 11.0 0.00 0.00 0.00 59 1009.6
20260508134750 51 261 10.0 13.0 0.00 0.00 0.00 58 1009.0
20260508134248 50 238 8.0 11.0 0.00 0.00 0.00 62 1009.3
20260508133744 49 229 11.0 13.0 0.00 0.00 0.00 62 1009.2
20260508133242 49 223 7.0 10.0 0.00 0.00 0.00 63 1009.4
20260508132740 48 237 6.0 10.0 0.00 0.00 0.00 66 1009.5
20260508132237 47 249 5.0 8.0 0.00 0.00 0.00 68 1009.5
20260508131732 47 233 5.0 8.0 0.00 0.00 0.00 69 1009.5
20260508131229 46 235 8.0 11.0 0.00 0.00 0.00 69 1009.3
20260508130725 46 231 7.0 10.0 0.00 0.00 0.00 70 1009.3
20260508130223 46 223 5.0 7.0 0.00 0.00 0.00 71 1009.7
20260508125718 45 231 7.0 8.0 0.00 0.00 0.00 72 1009.8
20260508125215 44 223 6.0 9.0 0.00 0.00 0.00 74 1009.6
20260508124713 44 223 7.0 9.0 0.00 0.00 0.00 74 1009.7
20260508124210 43 218 5.0 9.0 0.00 0.00 0.00 75 1009.7